DW5678 Kavala GR current weather conditions

sailwx.info

Wind from 132

Air temperature 24.4° C
Dewpoint 17.9° C

Last reported at 2014-Jul-23 20:45 UTC.
Time now 2014-Jul-23 21:43 UTC

Location: N 40°56' E 024°24'.
View on Google Maps.

See reports from other nearby stations

  
Tides and Currents Weather Stations Pressure Air Temp Water Temp Dewpoint Dewpoint Depression Visibility Wind Speed Wind Dir Waves Ship Positions
date/time (UTC)wind fromknots sea level pressurealtimeterstation pressurevisibilityair tempwater tempwave heightnotes
2014-Jul-23 20:45 132 24.4
2014-Jul-23 20:30 130 2 gusting 4 24.4
2014-Jul-23 20:15 098 0 gusting 5 23.9
2014-Jul-23 19:30 153 0 gusting 2 25.6
2014-Jul-23 19:15 110 0 gusting 6 25.6
2014-Jul-23 19:00 351 25.6
2014-Jul-23 18:45 013 1 gusting 6 25.0
2014-Jul-23 18:15 354 2 gusting 10 24.4
2014-Jul-23 17:45 315 3 gusting 10 24.4
2014-Jul-23 17:30 291 1 gusting 6 25.0
2014-Jul-23 17:15 305 2 gusting 6 25.6
2014-Jul-23 17:00 338 0 gusting 2 26.7
2014-Jul-23 16:45 290 0 gusting 4 26.7
2014-Jul-23 16:30 265 0 gusting 2 26.7
2014-Jul-23 16:15 232 0 gusting 2 26.7
2014-Jul-23 15:45 219 26.7
2014-Jul-23 15:30 224 0 gusting 6 26.7
2014-Jul-23 14:45 216 2 gusting 7 27.2
2014-Jul-23 14:30 215 0 gusting 6 27.8
2014-Jul-23 14:15 141 1 gusting 5 27.8
2014-Jul-23 14:00 115 0 gusting 7 28.3
2014-Jul-23 13:45 105 1 gusting 2 28.3
2014-Jul-23 13:30 129 1 gusting 6 28.3
2014-Jul-23 13:15 154 0 gusting 6 28.9
2014-Jul-23 13:00 204 1 gusting 6 28.3
2014-Jul-23 12:30 157 1 gusting 6 28.3
2014-Jul-23 12:15 156 1 gusting 6 28.3
2014-Jul-23 12:00 201 1 gusting 6 28.3
2014-Jul-23 11:45 141 1 gusting 6 28.3
2014-Jul-23 11:30 168 1 gusting 6 28.3
2014-Jul-23 11:15 133 2 gusting 6 27.8
2014-Jul-23 10:45 216 2 gusting 6 28.3
2014-Jul-23 10:30 177 0 gusting 5 28.3
2014-Jul-23 10:00 218 1 gusting 6 28.3
2014-Jul-23 09:15 139 0 gusting 5 27.8
2014-Jul-23 09:00 053 1 gusting 6 27.2
2014-Jul-23 08:45 118 1 gusting 5 27.2
2014-Jul-23 08:30 012 1 gusting 4 26.7
2014-Jul-23 08:15 091 0 gusting 4 26.1
2014-Jul-23 08:00 098 0 gusting 2 25.6
2014-Jul-23 07:45 038 1 gusting 2 25.6
2014-Jul-23 07:30 090 25.6
2014-Jul-23 07:00 151 0 gusting 4 25.6
2014-Jul-23 06:45 279 1 gusting 4 25.6
2014-Jul-23 06:30 157 0 gusting 4 25.6
2014-Jul-23 06:15 153 0 gusting 4 25.0
2014-Jul-23 06:00 261 0 gusting 2 25.0
2014-Jul-23 05:30 100 24.4
2014-Jul-23 05:15 100 23.9
2014-Jul-23 04:45 049 23.3
2014-Jul-23 04:15 027 22.8
2014-Jul-23 04:00 035 22.8
2014-Jul-23 03:45 035 22.8
2014-Jul-23 03:30 035 22.8
2014-Jul-23 03:15 030 22.8
2014-Jul-23 03:00 023 0 gusting 2 22.8
2014-Jul-23 02:45 013 23.3
2014-Jul-23 02:00 013 23.9
2014-Jul-23 01:45 041 23.9
2014-Jul-23 01:30 041 0 gusting 2 23.9
2014-Jul-23 01:15 045 23.9
2014-Jul-23 01:00 036 23.9
2014-Jul-23 00:45 025 23.9
2014-Jul-23 00:30 025 24.4
2014-Jul-23 00:15 025 24.4
2014-Jul-23 00:00 026 0 gusting 2 24.4
2014-Jul-22 23:45 345 24.4
2014-Jul-22 23:30 355 24.4
2014-Jul-22 23:15 324 0 gusting 2 25.0
2014-Jul-22 22:45 350 25.0
2014-Jul-22 22:30 336 25.0
2014-Jul-22 22:15 005 1 gusting 5 25.0
2014-Jul-22 22:00 024 0 gusting 6 25.0
2014-Jul-22 21:45 274 1 gusting 5 24.4
2014-Jul-22 21:30 074 1 gusting 11 23.9
2014-Jul-22 21:00 306 1 gusting 10 24.4
2014-Jul-22 20:45 224 1 gusting 10 25.0
2014-Jul-22 20:15 025 1 gusting 10 26.1
2014-Jul-22 20:00 292 0 gusting 6 26.1
2014-Jul-22 19:45 236 26.7
2014-Jul-22 19:30 277 26.7
2014-Jul-22 19:15 014 26.7
2014-Jul-22 19:00 050 27.2
2014-Jul-22 18:45 083 27.2
2014-Jul-22 18:15 066 0 gusting 6 27.8
2014-Jul-22 18:00 043 1 gusting 4 27.8
2014-Jul-22 17:30 044 28.3
2014-Jul-22 17:15 043 0 gusting 2 28.3
2014-Jul-22 17:00 038 28.3
2014-Jul-22 16:45 171 27.8
2014-Jul-22 16:30 182 0 gusting 1 27.8
2014-Jul-22 16:15 194 28.3
2014-Jul-22 16:00 199 28.3
2014-Jul-22 15:45 162 0 gusting 4 28.3
2014-Jul-22 15:30 219 0 gusting 2 28.9
2014-Jul-22 15:00 216 0 gusting 2 28.9
2014-Jul-22 14:45 170 0 gusting 2 29.4
2014-Jul-22 14:30 195 0 gusting 2 29.4
2014-Jul-22 14:15 217 1 gusting 4 29.4
2014-Jul-22 14:00 170 0 gusting 5 28.9
2014-Jul-22 13:45 144 0 gusting 5 29.4
2014-Jul-22 13:30 183 1 gusting 4 29.4
2014-Jul-22 13:15 141 2 gusting 5 29.4
2014-Jul-22 13:00 163 0 gusting 4 30.0
2014-Jul-22 12:45 144 1 gusting 4 30.0
2014-Jul-22 12:30 247 0 gusting 4 30.6
2014-Jul-22 12:15 221 0 gusting 5 30.6
2014-Jul-22 12:00 217 0 gusting 2 30.6
2014-Jul-22 11:30 220 0 gusting 5 30.6
2014-Jul-22 11:15 212 0 gusting 2 30.6
2014-Jul-22 11:00 176 0 gusting 4 30.6
2014-Jul-22 10:45 164 0 gusting 5 30.0
2014-Jul-22 10:30 207 1 gusting 2 30.0
2014-Jul-22 10:15 194 0 gusting 2 30.0
2014-Jul-22 10:00 210 0 gusting 2 30.0
2014-Jul-22 09:45 167 0 gusting 2 30.0
2014-Jul-22 09:30 211 0 gusting 2 30.0
2014-Jul-22 09:15 197 0 gusting 2 29.4
2014-Jul-22 09:00 190 0 gusting 2 29.4
2014-Jul-22 08:45 128 1 gusting 2 28.3
2014-Jul-22 08:30 152 0 gusting 5 28.3
2014-Jul-22 08:15 219 1 gusting 2 28.3
2014-Jul-22 08:00 161 27.8
2014-Jul-22 07:45 156 0 gusting 2 27.8
2014-Jul-22 07:15 157 27.2
2014-Jul-22 07:00 172 0 gusting 2 27.2
2014-Jul-22 06:45 173 27.8
2014-Jul-22 06:30 147 0 gusting 2 27.2
2014-Jul-22 06:15 157 0 gusting 2 27.2
2014-Jul-22 05:45 261 27.2
2014-Jul-22 05:30 355 26.7
2014-Jul-22 05:15 355 26.1
2014-Jul-22 05:00 355 26.1
2014-Jul-22 04:45 039 0 gusting 1 25.6
2014-Jul-22 04:30 044 25.6
2014-Jul-22 04:15 044 25.0
2014-Jul-22 04:00 044 24.4
2014-Jul-22 03:45 019 24.4
2014-Jul-22 03:30 024 23.9
2014-Jul-22 03:15 329 23.9
2014-Jul-22 03:00 317 23.9
2014-Jul-22 02:45 315 23.9
2014-Jul-22 02:30 315 24.4
2014-Jul-22 02:15 315 24.4
2014-Jul-22 02:00 315 24.4
2014-Jul-22 01:45 315 24.4
2014-Jul-22 01:30 315 0 gusting 1 24.4
2014-Jul-22 01:15 315 24.4
2014-Jul-22 01:00 315 25.0
2014-Jul-22 00:45 315 25.0
2014-Jul-22 00:30 315 25.6
2014-Jul-22 00:15 315 25.6
2014-Jul-22 00:00 315 25.6
2014-Jul-21 23:30 315 25.6
2014-Jul-21 23:15 315 25.6
2014-Jul-21 23:00 315 25.6
2014-Jul-21 22:45 315 26.1
2014-Jul-21 22:30 315 26.1
2014-Jul-21 22:15 315 26.1
2014-Jul-21 22:00 283 26.1
2014-Jul-21 21:45 281 26.1
2014-Jul-21 21:30 281 26.7
2014-Jul-21 21:15 281 26.7
2014-Jul-21 21:00 281 26.7